Flag for U.S.A. Weather past 2 weeks in Little Rock, Arkansas, U.S.A.

Now
84 °F

Sunny.


Feels Like: 87 °F
Forecast: 76 / 91 °F
Wind: 12 mph from Northeast

Location: Adams Field

Current Time: Jul 30, 2015 at 9:54:01 AM

Latest Report: Jul 30, 2015 at 8:53 AM


Visibility: 10 mi

Pressure: 30.11 "Hg

Humidity: 59%

Dew point: 68 °F

Location of Little RockLocation

Historic Weather in Little Rock — Graph

°F

Little Rock temperature yesterday

Maximum temperature yesterday: 101 °F (at 1:53 PM)
Minimum temperature yesterday: 79 °F (at 5:53 AM)
Average temperature yesterday: 90 °F

Past Weeks' High & Low Weather Summary

 TemperatureHumidityPressure
High101 °F (Jul 29, 1:53 PM)94% (Jul 26, 3:53 AM)30.10 "Hg (Jul 26, 3:53 AM)
Low75 °F (Jul 17, 5:53 AM)37% (Jul 29, 2:53 PM)29.81 "Hg (Jul 20, 6:53 PM)
Average86 °F67%29.93 "Hg
* Reported Jul 15 7:53 AM — Jul 30 7:53 AM, Little Rock, Weather by CustomWeather, © 2015

Note: Actual official high and low records may vary slightly from our data, if they occured in-between our weather recording intervals... More about our weather records

Advertising

Little Rock weather history for previous 24 hours

 ConditionsComfort  
Time TempWeatherWind HumidityBarometerVisibility
7:53 AM
Thu, Jul 30
82 °FPassing clouds.13 mph67%30.10 "Hg10 mi
6:53 AM81 °FPartly cloudy.7 mph77%30.08 "Hg10 mi
5:53 AM81 °FPassing clouds.7 mph77%30.06 "Hg10 mi
4:53 AM81 °FClear.6 mph82%30.05 "Hg10 mi
3:53 AM82 °FClear.5 mph79%30.04 "Hg10 mi
2:53 AM83 °FPassing clouds.3 mph77%30.04 "Hg10 mi
1:53 AM83 °FPassing clouds.7 mph77%30.05 "Hg10 mi
12:53 AM85 °FPassing clouds.8 mph70%30.04 "Hg10 mi
11:53 PM
Wed, Jul 29
88 °FPassing clouds.No wind59%30.03 "Hg10 mi
10:53 PM87 °FPassing clouds.No wind61%30.02 "Hg10 mi
9:53 PM87 °FPassing clouds.5 mph61%30.01 "Hg10 mi
8:53 PM91 °FBroken clouds.5 mph60%29.99 "Hg10 mi
7:53 PM94 °FPartly sunny.6 mph49%29.98 "Hg10 mi
6:53 PM96 °FScattered clouds.6 mph43%29.96 "Hg10 mi
5:53 PM98 °FPassing clouds.5 mph40%29.96 "Hg10 mi
4:53 PM98 °FScattered clouds.5 mph39%29.96 "Hg10 mi
3:53 PM100 °FScattered clouds.7 mph39%29.96 "Hg10 mi
2:53 PM100 °FScattered clouds.No wind37%29.99 "Hg10 mi
1:53 PM101 °FScattered clouds.9 mph38%30.01 "Hg10 mi
12:53 PM98 °FScattered clouds.6 mph40%30.03 "Hg10 mi
11:53 AM97 °FScattered clouds.6 mph42%30.04 "Hg10 mi
10:53 AM96 °FScattered clouds.8 mph46%30.05 "Hg10 mi
9:53 AM93 °FPassing clouds.No wind54%30.05 "Hg10 mi
Weather by CustomWeather, © 2015

See weather overviewHow to use our weather pages